FW6665 Weather Reports


Display with metric or nautical units.
time (UTC)temp
F
wind
direction
speed
MPH
gust
MPH
rain 1hr
in
rain 24hr
in
rain mn
in
humidity
%
barometer
mb
20260904200704 64 238 4.0 11.0 0.00 0.02 0.02 69 1015.6
20260904195705 64 245 4.0 13.0 0.00 0.02 0.02 68 1015.6
20260904195204 64 244 2.0 13.0 0.00 0.02 0.02 67 1015.5
20260904194709 64 238 3.0 9.0 0.00 0.02 0.02 67 1015.4
20260904193704 65 228 4.0 9.0 0.00 0.02 0.02 66 1015.3
20260904192703 65 234 2.0 9.0 0.00 0.02 0.02 64 1014.9
20260904192204 65 159 2.0 9.0 0.00 0.02 0.02 64 1014.8
20260904191704 65 247 4.0 10.0 0.00 0.02 0.02 63 1014.8
20260904191204 65 238 2.0 10.0 0.00 0.02 0.02 63 1014.8
20260904190204 65 210 4.0 10.0 0.00 0.02 0.02 62 1014.7
20260904185704 65 235 3.0 9.0 0.00 0.02 0.02 62 1014.5
20260904185205 65 243 3.0 9.0 0.00 0.02 0.02 62 1014.4
20260904184704 66 245 3.0 10.0 0.00 0.02 0.02 61 1014.3
20260904184204 66 244 4.0 10.0 0.00 0.02 0.02 61 1014.3
20260904183704 66 243 4.0 10.0 0.00 0.02 0.02 61 1014.2
20260904182704 66 252 3.0 13.0 0.00 0.02 0.02 61 1014.0
20260904181209 66 230 6.0 11.0 0.00 0.02 0.02 61 1013.9
20260904180704 66 255 4.0 10.0 0.00 0.02 0.02 62 1013.9
20260904180204 66 247 4.0 9.0 0.00 0.02 0.02 62 1013.8
20260904175704 66 240 3.0 9.0 0.00 0.02 0.02 62 1013.6
20260904175205 67 200 3.0 9.0 0.00 0.02 0.02 61 1013.7
20260904174727 67 173 2.0 10.0 0.00 0.02 0.02 61 1013.6
20260904174205 67 235 3.0 15.0 0.00 0.02 0.02 61 1013.6
20260904173708 67 243 3.0 15.0 0.00 0.02 0.02 60 1013.5
20260904173204 67 240 5.0 15.0 0.00 0.02 0.02 60 1013.4
20260904172704 67 241 5.0 11.0 0.00 0.02 0.02 60 1013.4
20260904172204 67 231 3.0 11.0 0.00 0.02 0.02 59 1013.3
20260904171704 67 237 2.0 9.0 0.00 0.02 0.02 58 1013.3
20260904171214 67 235 2.0 11.0 0.00 0.02 0.02 58 1013.3
20260904170704 67 255 4.0 11.0 0.00 0.02 0.02 57 1013.3
20260904170209 67 262 3.0 11.0 0.00 0.02 0.02 56 1013.2
20260904165204 67 254 4.0 13.0 0.00 0.02 0.02 55 1013.2
20260904164704 67 252 4.0 13.0 0.00 0.02 0.02 55 1013.2
20260904164204 67 265 4.0 13.0 0.00 0.02 0.02 55 1013.0
20260904163703 68 251 5.0 15.0 0.00 0.02 0.02 55 1012.9
20260904163204 68 195 5.0 15.0 0.00 0.02 0.02 56 1012.8
20260904162703 68 164 3.0 13.0 0.00 0.02 0.02 57 1012.9
20260904162205 68 255 6.0 14.0 0.00 0.02 0.02 58 1012.9
20260904161705 68 244 4.0 14.0 0.00 0.02 0.02 58 1012.7
20260904161204 68 224 5.0 12.0 0.00 0.02 0.02 58 1012.7
20260904160704 68 254 4.0 12.0 0.00 0.02 0.02 57 1012.6
20260904155205 69 99 2.0 13.0 0.00 0.02 0.02 57 1012.3
20260904154203 69 182 6.0 13.0 0.00 0.02 0.02 56 1012.5
20260904153704 69 241 4.0 14.0 0.00 0.02 0.02 57 1012.6
20260904153204 69 235 4.0 14.0 0.00 0.02 0.02 56 1012.6
20260904151705 69 268 5.0 14.0 0.00 0.02 0.02 57 1012.4
20260904151204 69 248 6.0 13.0 0.00 0.02 0.02 57 1012.4
20260904150704 69 237 4.0 14.0 0.00 0.02 0.02 57 1012.4
20260904150204 69 224 5.0 14.0 0.00 0.02 0.02 57 1012.6
20260904145704 69 265 3.0 12.0 0.00 0.02 0.02 57 1012.3
20260904145205 69 223 3.0 12.0 0.00 0.02 0.02 56 1012.2
20260904144704 69 149 2.0 15.0 0.00 0.02 0.02 56 1012.3
20260904144204 69 265 5.0 15.0 0.00 0.02 0.02 56 1012.2
20260904143704 69 240 3.0 15.0 0.00 0.02 0.02 58 1012.1
20260904143204 69 241 5.0 13.0 0.00 0.02 0.02 58 1011.9
20260904142704 69 257 6.0 13.0 0.00 0.02 0.02 59 1012.1
20260904142209 68 231 4.0 14.0 0.00 0.02 0.02 59 1012.0
20260904141704 68 240 6.0 14.0 0.00 0.02 0.02 59 1012.1
20260904141204 68 241 5.0 14.0 0.00 0.02 0.02 58 1012.0
20260904140705 69 264 5.0 14.0 0.00 0.02 0.02 59 1012.2
20260904140205 69 238 7.0 14.0 0.00 0.02 0.02 59 1012.1
20260904135705 69 238 4.0 14.0 0.00 0.02 0.02 60 1012.2
20260904135205 69 235 6.0 15.0 0.00 0.02 0.02 60 1012.2
20260904134704 69 230 5.0 19.0 0.00 0.02 0.02 60 1012.1
20260904134204 69 226 6.0 19.0 0.00 0.02 0.02 60 1011.8
20260904133706 69 202 7.0 19.0 0.00 0.02 0.02 59 1012.0
20260904132705 69 244 8.0 18.0 0.00 0.02 0.02 60 1011.9
20260904132206 69 224 4.0 18.0 0.00 0.02 0.02 60 1012.0
20260904131704 70 257 9.0 18.0 0.00 0.02 0.02 59 1012.1
20260904130704 69 266 6.0 16.0 0.00 0.02 0.02 59 1011.9
20260904130205 70 221 8.0 14.0 0.00 0.02 0.02 60 1011.8
20260904125704 70 261 4.0 14.0 0.00 0.02 0.02 64 1011.6
20260904124704 69 233 6.0 15.0 0.00 0.02 0.02 64 1011.4
20260904124204 69 250 5.0 15.0 0.00 0.02 0.02 64 1011.4
20260904123704 69 245 6.0 15.0 0.00 0.02 0.02 64 1011.3
20260904123204 69 244 4.0 14.0 0.00 0.02 0.02 64 1011.2
20260904122704 69 255 5.0 16.0 0.00 0.02 0.02 64 1011.4
20260904121704 69 262 6.0 16.0 0.00 0.02 0.02 64 1011.2
20260904121203 69 235 7.0 13.0 0.00 0.02 0.02 64 1011.2
20260904120704 69 233 4.0 13.0 0.00 0.02 0.02 66 1011.0
20260904120209 69 244 5.0 20.0 0.00 0.02 0.02 66 1010.8
20260904115705 69 188 3.0 20.0 0.00 0.02 0.02 66 1010.8
20260904115204 69 241 4.0 20.0 0.00 0.02 0.02 66 1010.9
20260904114704 69 265 7.0 16.0 0.00 0.02 0.02 66 1010.9
20260904114203 69 255 6.0 13.0 0.00 0.02 0.02 66 1010.8
20260904113704 70 238 4.0 13.0 0.00 0.02 0.02 68 1010.7
20260904113204 70 298 5.0 14.0 0.00 0.02 0.02 69 1010.5
20260904112704 70 244 5.0 14.0 0.00 0.02 0.02 69 1010.3
20260904112204 70 231 7.0 15.0 0.00 0.02 0.02 68 1010.5
20260904111704 70 272 7.0 15.0 0.00 0.02 0.02 69 1010.4
20260904111214 70 259 5.0 15.0 0.00 0.02 0.02 69 1010.2
20260904110704 70 257 5.0 17.0 0.00 0.02 0.02 70 1010.4
20260904110204 70 228 2.0 17.0 0.00 0.02 0.02 71 1010.3
20260904104704 69 237 5.0 15.0 0.00 0.02 0.02 74 1010.1
20260904104204 69 255 6.0 14.0 0.00 0.02 0.02 73 1010.2
20260904103704 69 275 5.0 14.0 0.00 0.02 0.02 74 1010.4
20260904103205 69 234 6.0 15.0 0.00 0.02 0.02 74 1010.3
20260904102704 69 233 6.0 15.0 0.00 0.02 0.02 75 1010.2
20260904101204 69 166 4.0 13.0 0.00 0.02 0.02 76 1010.0
20260904100704 68 244 3.0 13.0 0.00 0.02 0.02 77 1009.9
20260904100204 68 241 4.0 13.0 0.00 0.02 0.02 77 1009.8
20260904095704 68 259 6.0 12.0 0.00 0.02 0.02 77 1009.8
20260904095233 68 228 4.0 13.0 0.00 0.02 0.02 77 1009.7
20260904094704 67 258 4.0 13.0 0.00 0.02 0.02 77 1009.5
20260904094204 67 231 5.0 13.0 0.00 0.02 0.02 77 1009.6
20260904093707 67 235 5.0 9.0 0.00 0.02 0.02 76 1009.8
20260904093206 67 255 2.0 9.0 0.00 0.02 0.02 74 1009.9
20260904091704 66 226 3.0 12.0 0.02 0.02 0.02 72 1009.9
20260904090704 66 245 5.0 10.0 0.02 0.02 0.02 72 1009.8
20260904090204 66 258 3.0 10.0 0.02 0.02 0.02 71 1009.8
20260904085705 67 231 5.0 9.0 0.02 0.02 0.02 71 1009.6
20260904085204 67 228 3.0 10.0 0.02 0.02 0.02 70 1009.6
20260904084704 67 231 4.0 10.0 0.02 0.02 0.02 71 1009.4
20260904083704 67 241 3.0 16.0 0.02 0.02 0.02 72 1009.4
20260904083204 67 240 4.0 16.0 0.02 0.02 0.02 74 1009.3
20260904082704 69 254 6.0 16.0 0.02 0.02 0.00 75 1009.1
20260904081703 70 188 4.0 17.0 0.00 0.00 0.00 76 1008.4
20260904080204 70 252 5.0 16.0 0.00 0.00 0.00 77 1008.2
20260904075704 71 289 6.0 16.0 0.00 0.00 0.00 77 1008.1
20260904075204 71 221 6.0 16.0 0.00 0.00 0.00 77 1008.0
20260904074704 71 243 3.0 13.0 0.00 0.00 0.00 77 1007.9
20260904074204 71 178 5.0 13.0 0.00 0.00 0.00 77 1008.0
20260904073705 71 306 3.0 13.0 0.00 0.00 0.00 77 1007.9
20260904073206 71 104 4.0 13.0 0.00 0.00 0.00 77 1008.0
20260904072704 71 240 5.0 14.0 0.00 0.00 0.00 77 1007.9
20260904072205 70 244 4.0 14.0 0.00 0.00 0.00 77 1007.8
20260904070204 70 159 4.0 10.0 0.00 0.00 0.00 77 1007.7
20260904065706 70 226 4.0 13.0 0.00 0.00 0.00 77 1007.7
20260904065204 70 272 4.0 13.0 0.00 0.00 0.00 77 1007.9
20260904064714 69 219 4.0 13.0 0.00 0.00 0.00 77 1007.8
20260904064209 69 231 4.0 11.0 0.00 0.00 0.00 77 1007.8
20260904063704 69 216 3.0 12.0 0.00 0.00 0.00 77 1007.9
20260904063205 69 282 4.0 13.0 0.00 0.00 0.00 77 1007.8
20260904062704 69 131 4.0 13.0 0.00 0.00 0.00 77 1007.8
20260904061703 69 142 4.0 11.0 0.00 0.00 0.00 77 1008.2
20260904061205 69 248 4.0 9.0 0.00 0.00 0.00 77 1008.2
20260904060703 69 272 4.0 12.0 0.00 0.00 0.00 77 1008.3
20260904060204 69 183 2.0 12.0 0.00 0.00 0.00 77 1008.3
20260904055704 69 97 3.0 12.0 0.00 0.00 0.00 77 1008.3
20260904055204 69 204 3.0 12.0 0.00 0.00 0.00 77 1008.2
20260904054704 69 148 3.0 14.0 0.00 0.00 0.00 77 1008.1
20260904054203 69 250 3.0 14.0 0.00 0.00 0.00 77 1008.0
20260904053704 69 268 2.0 14.0 0.00 0.00 0.00 77 1008.1
20260904053204 69 230 5.0 14.0 0.00 0.00 0.00 77 1008.1
20260904052704 69 238 3.0 14.0 0.00 0.00 0.00 77 1008.1
20260904052204 69 180 3.0 11.0 0.00 0.00 0.00 77 1007.8
20260904051704 69 230 2.0 15.0 0.00 0.00 0.00 77 1008.0
20260904051204 69 226 3.0 16.0 0.00 0.00 0.00 77 1008.2
20260904050705 69 206 2.0 16.0 0.00 0.00 0.00 77 1008.2
20260904050204 69 116 4.0 16.0 0.00 0.00 0.00 77 1008.4
20260904045705 69 250 6.0 10.0 0.00 0.00 0.00 77 1008.4
20260904045204 69 179 3.0 9.0 0.00 0.00 0.00 77 1008.6
20260904044704 69 259 3.0 11.0 0.00 0.00 0.00 77 1008.6
20260904044204 69 272 3.0 11.0 0.00 0.00 0.00 77 1008.6
20260904043704 69 148 3.0 11.0 0.00 0.00 0.00 77 1008.6
20260904043203 69 227 4.0 10.0 0.00 0.00 0.00 77 1008.7
20260904042705 69 216 3.0 12.0 0.00 0.00 0.00 77 1008.9
20260904042205 69 252 4.0 12.0 0.00 0.00 0.00 77 1008.9
20260904041705 69 151 3.0 10.0 0.00 0.00 0.00 77 1008.9
20260904041204 69 243 2.0 10.0 0.00 0.00 0.00 77 1009.0
20260904040704 69 145 2.0 11.0 0.00 0.00 0.00 77 1008.9
20260904040204 69 189 3.0 11.0 0.00 0.00 0.00 77 1008.9
20260904035704 69 188 3.0 11.0 0.00 0.00 0.00 77 1008.9
20260904035204 69 262 2.0 11.0 0.00 0.00 0.00 77 1008.9
20260904034704 69 235 4.0 15.0 0.00 0.00 0.00 77 1009.1
20260904034204 69 192 4.0 15.0 0.00 0.00 0.00 77 1009.1
20260904033704 69 189 3.0 15.0 0.00 0.00 0.00 77 1009.2
20260904033205 69 172 4.0 14.0 0.00 0.00 0.00 77 1009.1
20260904032706 69 152 4.0 14.0 0.00 0.00 0.00 77 1009.1
20260904032205 69 209 2.0 14.0 0.00 0.00 0.00 77 1009.0
20260904031704 69 178 3.0 9.0 0.00 0.00 0.00 77 1009.2
20260904031204 69 254 3.0 12.0 0.00 0.00 0.00 77 1009.4
20260904030704 69 89 3.0 12.0 0.00 0.00 0.00 77 1009.5
20260904030204 69 192 4.0 12.0 0.00 0.00 0.00 77 1009.7
20260904025704 69 217 4.0 12.0 0.00 0.00 0.00 77 1009.7
20260904024706 69 186 5.0 10.0 0.00 0.00 0.00 77 1009.9
20260904024207 69 178 2.0 13.0 0.00 0.00 0.00 77 1009.9
20260904023706 69 257 3.0 13.0 0.00 0.00 0.00 77 1009.8
20260904023207 69 44 3.0 10.0 0.00 0.00 0.00 77 1009.8
20260904022703 69 158 4.0 15.0 0.00 0.00 0.00 77 1009.8
20260904021703 69 151 3.0 11.0 0.00 0.00 0.00 77 1010.0
20260904021204 69 204 3.0 12.0 0.00 0.00 0.00 77 1010.1
20260904015704 69 241 2.0 16.0 0.00 0.00 0.00 77 1010.1
20260904015204 69 210 3.0 16.0 0.00 0.00 0.00 77 1010.2
20260904014710 69 110 3.0 16.0 0.00 0.00 0.00 77 1010.3
20260904014204 69 186 4.0 12.0 0.00 0.00 0.00 77 1010.4
20260904013704 69 204 3.0 12.0 0.00 0.00 0.00 77 1010.5
20260904013204 69 140 2.0 11.0 0.00 0.00 0.00 77 1010.6
20260904012704 69 180 3.0 11.0 0.00 0.00 0.00 77 1010.6
20260904012204 69 264 3.0 11.0 0.00 0.00 0.00 77 1010.7
20260904011704 69 20 3.0 6.0 0.00 0.00 0.00 77 1010.6
20260904011204 69 172 2.0 7.0 0.00 0.00 0.00 77 1010.7
20260904010704 69 250 2.0 9.0 0.00 0.00 0.00 77 1010.7
20260904010203 69 220 2.0 10.0 0.00 0.00 0.00 77 1010.8
20260904005704 68 173 3.0 10.0 0.00 0.00 0.00 77 1010.9
20260904005204 68 228 4.0 7.0 0.00 0.00 0.00 77 1011.0
20260904004705 68 97 2.0 9.0 0.00 0.00 0.00 77 1011.1
20260904004205 68 189 2.0 9.0 0.00 0.00 0.00 77 1011.2
20260904003704 68 183 1.0 9.0 0.00 0.00 0.00 77 1011.3
20260904003204 68 142 2.0 9.0 0.00 0.00 0.00 77 1011.4
20260904002704 68 176 1.0 7.0 0.00 0.00 0.00 77 1011.5
20260904002204 68 193 2.0 12.0 0.00 0.00 0.00 77 1011.6
20260904001705 68 183 1.0 12.0 0.00 0.00 0.00 77 1011.7
20260904001204 68 202 2.0 10.0 0.00 0.00 0.00 77 1011.8
20260904000704 68 180 2.0 10.0 0.00 0.00 0.00 77 1012.0
20260904000204 68 221 1.0 10.0 0.00 0.00 0.00 77 1012.1
20260903235704 68 278 3.0 9.0 0.00 0.00 0.00 77 1012.2
20260903235204 68 193 3.0 9.0 0.00 0.00 0.00 77 1012.2
20260903234714 68 130 3.0 10.0 0.00 0.00 0.00 77 1012.2
20260903234204 68 102 2.0 10.0 0.00 0.00 0.00 77 1012.2
20260903233707 68 219 1.0 10.0 0.00 0.00 0.00 77 1012.1
20260903233204 68 237 2.0 4.0 0.00 0.00 0.00 77 1012.2
20260903231204 69 169 0.0 6.0 0.00 0.00 0.00 77 1012.4
20260903230704 69 227 1.0 6.0 0.00 0.00 0.00 77 1012.5
20260903230233 69 193 2.0 7.0 0.00 0.00 0.00 77 1012.5
20260903225203 69 186 2.0 10.0 0.00 0.00 0.00 77 1012.4
20260903224704 69 207 2.0 10.0 0.00 0.00 0.00 77 1012.4
20260903224204 69 206 3.0 10.0 0.00 0.00 0.00 77 1012.4
20260903223704 69 179 2.0 10.0 0.00 0.00 0.00 77 1012.6
20260903223206 69 182 2.0 10.0 0.00 0.00 0.00 77 1012.8
20260903222704 70 234 3.0 11.0 0.00 0.00 0.00 77 1012.8
20260903222204 70 258 3.0 12.0 0.00 0.00 0.00 77 1012.8
20260903221204 70 179 3.0 11.0 0.00 0.00 0.00 77 1012.9
20260903220704 70 226 4.0 11.0 0.00 0.00 0.00 77 1013.0
20260903220204 70 195 3.0 10.0 0.00 0.00 0.00 77 1013.0
20260903215704 70 175 2.0 10.0 0.00 0.00 0.00 77 1013.1
20260903215204 70 220 1.0 10.0 0.00 0.00 0.00 77 1013.1
20260903214704 70 247 3.0 10.0 0.00 0.00 0.00 77 1013.1
20260903213704 70 210 3.0 10.0 0.00 0.00 0.00 77 1013.2
20260903213203 70 268 4.0 7.0 0.00 0.00 0.00 77 1013.2
20260903212704 70 178 2.0 9.0 0.00 0.00 0.00 77 1013.2
20260903212205 70 180 2.0 11.0 0.00 0.00 0.00 77 1013.1
20260903211205 70 264 3.0 12.0 0.00 0.00 0.00 77 1013.4
20260903210704 70 257 2.0 12.0 0.00 0.00 0.00 77 1013.3
20260903210204 70 161 3.0 9.0 0.00 0.00 0.00 77 1013.4
20260903205704 70 186 3.0 9.0 0.00 0.00 0.00 77 1013.5
20260903205204 70 261 2.0 9.0 0.00 0.00 0.00 77 1013.5
20260903204704 70 212 2.0 9.0 0.00 0.00 0.00 77 1013.4
20260903204203 70 180 3.0 9.0 0.00 0.00 0.00 77 1013.4
20260903203704 70 203 1.0 6.0 0.00 0.00 0.00 77 1013.4
20260903203203 70 185 2.0 7.0 0.00 0.00 0.00 77 1013.5
20260903202704 70 125 2.0 7.0 0.00 0.00 0.00 77 1013.5
20260903202204 70 162 1.0 7.0 0.00 0.00 0.00 77 1013.5
20260903201214 70 235 1.0 7.0 0.00 0.00 0.00 77 1013.4